Wind_Speed
20 21 23 25 28 31 34 36 38 40 42 43 45 46 47 48 48 49 50 50 51 51 50 50 51 53 55 56 56 56 55 56 56 57 58 59 60 61 60 59 58 57 57 57 56 56 56 56 55 54 53 53 52 52 52 51 51 51 50 50 51 50 50 49 48 47 47 46 46 46 46 46 47 47 48 47 47 47 47 47 47 48 48 47 47
19 20 22 23 26 29 32 35 37 39 41 43 44 46 47 48 49 50 50 51 52 52 52 51 52 53 54 55 55 55 55 55 56 56 57 59 60 61 61 60 59 58 57 57 57 57 57 57 56 56 55 54 54 53 53 52 52 52 52 52 52 52 51 50 49 48 47 47 47 47 47 47 48 48 49 49 49 50 50 50 50 50 50 50 50
19 20 21 22 24 26 29 32 35 38 40 42 44 45 47 48 49 50 51 51 52 53 53 53 53 53 54 55 56 56 56 56 56 56 57 58 59 61 62 62 61 59 58 58 58 58 57 57 57 57 57 56 55 55 54 54 53 52 52 52 52 53 53 52 50 48 48 49 49 50 50 49 49 50 52 52 53 54 54 54 53 52 53 53 53
17 19 20 21 23 25 27 30 33 36 38 41 43 45 46 47 49 50 51 52 53 54 54 54 54 54 55 55 56 56 57 57 57 57 57 58 59 60 62 63 62 61 60 60 60 59 59 58 59 58 58 58 57 56 56 55 55 54 53 53 53 54 53 53 51 50 50 51 52 53 53 53 53 53 54 55 56 56 56 56 55 55 55 55 55
13 16 19 20 22 23 25 28 30 33 36 39 41 43 45 47 49 50 51 52 53 54 55 56 56 56 56 56 56 57 57 58 58 58 58 58 59 60 61 63 63 63 62 62 61 61 60 60 60 60 60 59 59 58 57 57 56 56 55 55 55 55 54 54 53 53 53 54 54 55 55 55 55 56 56 57 57 58 58 58 58 57 57 57 57
9 12 16 19 21 22 24 26 28 31 34 37 39 42 44 46 48 50 51 52 53 54 55 56 57 58 58 57 57 57 58 58 59 59 58 58 59 60 61 62 64 64 64 64 63 63 62 62 62 62 62 62 61 60 59 59 58 58 58 58 58 57 57 56 56 56 56 57 57 57 57 58 58 58 58 59 59 59 59 59 59 59 59 59 59
8 9 12 15 19 21 23 24 26 28 31 34 37 39 42 44 46 49 50 52 53 54 55 56 57 58 59 59 59 59 58 58 59 59 59 59 59 60 61 63 64 65 65 65 65 65 64 64 64 63 63 63 63 62 62 61 61 61 61 61 60 61 60 60 59 60 60 60 60 60 60 61 61 60 60 61 61 61 61 61 61 61 61 60 60
9 9 10 12 15 18 21 23 25 26 28 31 33 37 39 42 44 46 49 51 53 54 55 55 56 57 58 59 59 60 59 59 59 59 60 59 59 59 61 63 64 65 65 66 66 67 67 67 66 66 66 65 65 64 64 64 64 64 63 63 63 63 64 64 64 64 64 64 64 64 64 64 63 63 63 63 62 62 62 62 62 62 62 62 61
12 11 11 11 13 15 18 21 24 26 27 29 31 33 36 39 42 44 46 48 51 53 55 56 56 56 57 57 58 59 60 60 60 60 60 60 60 60 60 61 63 64 65 66 67 68 68 69 69 68 68 68 67 67 66 66 66 66 66 66 66 66 66 67 68 68 68 68 68 67 67 66 66 65 65 64 64 64 63 63 63 63 63 63 62
15 14 13 13 13 14 16 18 21 24 26 28 30 31 33 36 39 42 44 46 48 50 53 55 56 57 57 57 57 58 59 60 60 61 61 61 61 61 61 61 62 63 64 65 66 68 69 69 70 70 70 70 69 69 68 68 68 68 68 68 68 68 69 70 70 71 71 71 70 70 69 68 68 67 66 66 65 65 64 64 64 64 64 64 64
18 17 16 15 15 15 15 16 18 21 24 26 28 30 31 33 36 38 41 44 46 48 50 52 54 56 57 58 58 58 59 59 60 61 62 62 62 62 62 63 63 63 63 64 65 66 67 69 70 70 71 71 71 71 70 70 70 70 70 71 71 71 71 72 73 73 73 73 72 71 70 70 69 68 68 67 66 66 65 65 65 65 65 65 65
21 20 19 18 17 16 16 16 17 18 20 23 26 28 30 32 33 35 37 40 43 46 48 50 51 53 55 57 58 59 59 59 60 60 61 62 62 63 63 63 64 64 64 64 64 65 66 67 68 69 70 71 72 72 72 72 72 72 72 72 73 73 74 74 75 75 75 74 73 72 72 71 70 69 69 68 67 67 66 66 66 66 66 66 66
22 22 22 21 20 18 17 17 17 17 18 20 22 25 28 30 32 33 35 36 39 42 44 47 49 51 53 55 57 59 59 60 60 61 61 62 62 63 63 64 64 64 65 65 66 66 66 67 67 68 69 70 71 72 72 72 73 73 73 73 73 74 75 75 75 75 75 74 73 73 72 72 71 71 70 69 69 69 68 68 68 67 67 67 68
23 23 24 23 23 21 20 19 18 18 18 19 20 21 24 27 29 31 33 34 36 38 40 42 45 48 50 52 54 56 58 59 60 61 62 62 62 63 63 64 65 65 65 66 67 67 68 68 68 68 68 69 70 71 71 72 73 73 73 73 73 74 74 75 75 74 74 74 74 73 73 73 72 72 71 71 71 71 71 70 70 70 70 70 70
21 22 23 24 24 24 23 22 22 21 20 20 20 20 21 23 25 28 30 32 34 35 36 38 41 43 46 49 51 53 56 58 59 61 62 62 63 63 64 64 65 66 66 67 67 68 69 69 69 69 69 69 70 70 70 71 72 72 72 72 73 73 74 74 74 74 74 73 73 74 74 74 74 73 73 73 73 73 73 73 72 72 72 72 72
19 20 22 23 24 24 25 25 25 24 23 23 22 21 22 22 23 24 26 28 31 32 34 35 37 39 41 44 47 50 52 54 56 58 60 62 63 64 64 65 66 66 66 67 68 68 69 70 70 70 70 71 71 71 71 72 72 72 72 73 73 73 74 74 74 74 74 73 73 74 74 75 75 74 74 74 74 74 74 74 74 74 74 74 74
18 19 19 20 21 22 23 24 25 25 26 26 25 25 24 24 24 24 25 26 27 29 31 32 34 35 37 39 42 45 47 50 52 55 57 59 60 62 64 65 66 67 67 67 68 68 69 70 71 71 71 71 72 72 72 73 73 73 73 74 74 74 75 75 75 75 75 75 74 74 75 75 75 75 75 75 75 75 75 75 75 75 75 75 75
19 19 20 20 20 19 20 21 22 23 24 25 27 28 28 27 27 26 26 27 27 27 28 29 31 32 33 35 37 39 41 44 47 50 52 54 57 59 61 62 64 65 67 68 68 68 69 70 71 71 71 72 72 73 73 73 74 74 74 75 75 75 76 76 76 76 76 76 76 76 76 76 76 76 76 76 76 76 76 76 76 76 76 76 76
18 19 19 20 20 20 19 19 20 20 21 22 24 25 27 29 29 29 29 29 29 29 29 29 30 30 31 32 34 35 36 38 41 43 46 49 51 54 56 58 60 62 63 65 67 67 68 70 71 71 72 72 73 73 73 74 74 75 75 75 76 76 76 77 77 77 77 77 76 76 76 76 77 77 76 76 76 76 76 76 76 76 76 76 76
18 18 18 19 20 20 21 20 20 20 20 21 22 22 23 25 27 29 30 31 31 31 31 31 31 31 31 32 33 34 34 35 37 38 40 42 45 48 50 52 54 57 58 61 63 64 65 67 69 70 71 72 73 73 74 74 75 75 76 76 76 77 77 77 77 77 77 77 77 77 77 77 77 77 76 76 76 76 76 76 76 76 76 76 76
19 19 20 20 20 20 20 21 21 21 20 21 22 23 23 23 24 26 27 29 31 32 33 33 33 33 33 33 34 34 34 35 36 37 38 39 40 42 44 46 48 51 53 55 58 59 61 63 65 67 68 69 71 72 73 74 74 75 75 76 76 77 77 78 78 78 78 78 78 78 78 78 78 77 77 77 77 77 77 77 76 76 76 76 76
20 20 22 22 22 22 22 22 22 22 22 22 23 23 24 24 25 25 26 27 28 30 32 33 34 35 35 35 36 36 36 36 37 37 37 38 38 39 40 41 43 45 47 50 52 54 56 58 60 62 64 66 67 69 70 71 72 73 73 74 75 75 76 76 77 77 78 78 78 78 78 78 78 78 78 78 78 78 78 78 77 77 77 77 77
21 21 22 24 25 25 25 25 24 24 24 24 24 24 24 24 25 26 27 28 28 28 29 31 33 35 36 37 38 38 39 39 38 38 38 39 39 39 39 40 41 42 43 45 47 48 50 52 54 56 59 61 62 64 66 67 68 70 70 71 72 72 73 73 74 74 75 76 76 76 77 77 77 77 77 77 78 78 78 78 78 78 77 77 77
23 22 23 24 26 27 28 28 27 27 26 27 27 26 26 25 25 25 26 28 28 29 30 30 31 33 35 37 38 40 40 40 40 40 40 40 41 41 41 41 41 42 43 43 44 44 45 47 48 50 53 54 56 58 60 62 64 65 66 68 69 69 70 70 71 71 72 72 72 73 73 74 74 74 75 75 75 75 76 76 76 76 76 75 75
24 25 25 26 27 27 28 29 30 30 30 29 29 29 28 28 27 27 26 27 28 29 30 31 32 32 33 35 37 39 40 41 42 42 42 42 43 43 43 43 43 44 44 44 44 44 44 45 45 47 49 49 50 52 54 56 58 60 61 62 64 65 66 66 67 68 68 69 69 69 70 70 70 71 71 71 72 72 72 72 72 73 72 72 72
25 26 27 27 28 28 28 29 30 31 32 32 31 31 30 30 29 29 29 28 28 29 29 30 32 33 34 35 36 37 39 40 42 42 43 44 44 44 45 46 46 46 46 46 46 46 46 46 46 47 48 48 48 49 50 51 53 54 55 57 58 59 60 61 62 63 64 64 65 65 66 66 67 67 68 68 68 68 68 69 69 69 69 69 68
27 27 28 28 29 29 30 30 30 30 31 33 33 33 32 32 32 31 31 31 31 31 31 31 32 32 34 35 35 36 38 39 40 41 42 43 44 45 46 47 47 48 48 48 48 48 48 48 48 49 50 50 49 50 50 50 51 52 52 53 53 54 55 56 57 58 59 59 60 61 61 62 62 63 63 63 64 64 64 64 65 65 65 65 65
29 29 29 30 30 31 31 31 32 32 32 32 33 34 34 34 34 34 34 34 34 34 34 34 34 34 34 35 36 36 37 38 40 40 41 42 43 44 45 47 48 48 49 49 50 50 50 50 50 51 51 52 51 51 51 52 52 52 52 52 52 52 53 53 54 54 55 55 56 57 57 58 58 58 58 59 59 59 59 59 60 60 61 61 61
31 31 31 31 32 33 33 33 33 33 33 34 34 34 35 35 35 35 35 36 36 36 36 37 37 37 37 37 37 37 38 39 39 40 41 42 43 44 45 46 47 47 48 49 50 50 50 51 52 52 53 53 53 53 53 53 53 54 54 53 53 52 53 53 53 53 54 54 54 54 55 55 55 55 55 55 55 55 55 56 56 56 57 57 57
34 34 33 33 33 34 34 35 34 34 34 35 35 36 36 36 36 36 36 37 37 37 38 38 38 38 39 39 40 40 40 40 40 41 41 42 43 44 44 45 47 47 48 48 49 50 50 51 52 52 53 54 54 55 55 54 55 55 55 55 55 54 54 54 54 54 54 54 54 55 55 55 54 54 54 54 54 53 53 53 53 54 53 53 53
38 38 37 37 36 36 36 36 37 37 37 37 37 38 38 38 39 39 39 38 39 39 39 40 40 40 40 40 41 42 43 43 43 43 43 43 43 44 44 45 46 47 48 48 49 49 50 51 51 52 53 54 55 56 56 56 56 56 56 57 57 56 56 56 56 56 56 56 56 56 56 56 55 55 55 54 54 53 53 53 53 53 52 51 51
40 41 41 41 40 40 39 39 39 40 41 41 40 40 40 41 41 41 41 42 42 42 42 42 42 42 42 42 42 43 43 44 45 45 44 45 45 45 45 46 47 47 48 48 49 50 51 52 52 52 52 53 54 56 57 57 57 57 58 58 58 58 58 58 58 58 58 58 58 57 57 57 57 56 56 55 55 54 54 54 54 53 53 52 51
42 42 43 43 44 44 43 43 42 42 43 44 44 44 44 43 44 44 44 44 44 45 45 45 45 45 45 44 44 44 45 45 46 46 46 46 46 46 46 47 47 48 48 49 50 51 51 52 53 54 54 53 53 55 56 57 57 58 59 59 59 60 59 60 60 60 60 60 60 59 59 59 58 58 57 56 56 56 56 55 55 54 54 53 53
42 43 44 44 45 45 45 45 45 45 45 46 47 47 47 47 46 46 46 47 47 47 48 48 48 48 48 48 47 47 47 47 48 48 47 47 47 47 47 47 47 47 48 49 50 52 52 53 54 54 55 55 55 55 56 57 57 56 57 58 60 60 61 61 62 62 62 62 62 62 62 61 60 60 59 58 58 57 57 57 56 56 55 55 54
43 44 45 45 46 46 47 47 48 48 48 48 49 50 50 50 50 49 49 49 50 50 51 51 51 51 51 51 51 51 51 51 51 50 50 50 50 50 50 49 49 49 48 49 50 51 52 54 55 55 55 56 56 56 56 57 58 57 56 57 58 59 60 62 63 63 63 63 64 64 63 63 62 62 61 61 60 60 59 58 58 57 57 56 56
45 46 46 47 47 48 48 49 49 50 50 50 51 52 52 52 53 53 53 53 53 53 54 54 54 54 54 54 54 54 54 54 54 54 54 54 54 54 54 53 53 52 52 52 51 51 52 53 54 56 56 57 57 57 57 57 58 58 57 57 58 59 60 60 61 62 63 65 65 65 65 64 63 63 63 62 62 62 61 60 60 59 59 58 58
48 49 49 50 50 51 51 51 51 52 52 52 52 53 54 54 55 55 56 56 56 56 56 57 57 58 58 57 57 57 57 57 58 58 57 57 57 57 57 58 57 56 56 56 55 55 54 54 54 55 56 57 59 60 59 59 58 59 59 59 59 60 60 60 60 61 62 64 66 67 67 66 65 64 64 63 63 62 62 61 61 60 60 60 59
50 51 52 52 53 54 54 54 54 54 54 54 54 54 55 55 56 57 58 58 59 59 59 59 60 60 61 61 61 61 61 61 61 61 61 61 61 61 61 61 61 61 61 60 60 60 59 58 57 57 56 57 58 60 61 61 60 60 60 61 61 61 61 61 61 61 62 63 65 66 67 68 68 67 67 66 65 63 62 62 61 60 60 60 60
51 52 53 54 55 55 56 56 56 56 56 56 56 56 56 56 57 58 58 60 61 61 62 62 62 62 63 63 64 64 65 64 64 65 65 65 65 65 65 65 65 65 65 65 65 65 64 63 63 62 60 59 60 61 61 61 62 62 63 63 63 63 62 62 62 63 63 64 64 64 65 66 67 68 68 68 67 66 66 64 63 63 62 62 61
52 53 53 54 55 56 57 57 57 58 58 58 58 58 58 58 59 59 60 61 61 62 63 64 64 64 64 65 65 66 67 68 68 68 68 69 69 69 69 69 70 69 69 69 69 69 69 68 68 67 66 64 64 64 63 62 62 63 64 65 64 65 65 66 65 65 65 65 65 65 65 65 65 66 66 65 66 66 67 67 67 67 66 65 64
51 52 53 53 54 55 56 56 57 57 58 59 59 59 59 59 60 60 61 61 62 63 64 65 65 66 66 67 67 67 68 69 70 71 71 72 72 73 73 73 74 74 73 73 73 73 72 72 72 71 70 70 69 68 67 65 64 64 65 65 65 66 67 68 68 68 68 67 67 66 66 66 66 66 64 63 63 64 65 66 66 67 68 68 68
49 50 52 53 54 55 56 56 57 57 58 58 58 58 58 58 58 59 60 60 61 62 63 64 65 66 67 68 69 70 70 71 72 73 74 75 75 76 77 77 77 78 78 78 77 77 77 76 76 75 75 74 74 73 72 70 69 68 67 66 66 67 67 68 69 70 71 70 69 69 69 68 68 67 66 64 64 64 64 64 64 64 65 66 67
48 49 50 52 54 55 57 58 59 60 61 61 61 61 61 61 61 62 63 63 64 64 65 66 66 67 68 69 70 71 72 73 74 75 76 77 78 79 80 80 80 81 81 82 82 82 82 81 81 80 79 79 78 77 76 75 73 72 71 69 70 70 70 69 69 71 72 72 72 72 71 71 70 70 68 66 66 66 65 64 64 64 64 64 64
48 49 50 51 53 55 57 59 61 63 64 65 66 66 66 66 67 67 68 68 69 70 71 72 73 73 73 73 73 74 74 75 76 77 78 79 80 82 83 83 84 84 85 85 85 86 86 86 86 85 84 84 83 82 81 80 78 77 75 74 73 73 73 73 72 71 72 73 73 74 74 74 73 72 71 69 69 68 67 66 66 65 65 64 64
51 52 52 53 54 56 58 59 60 62 65 68 70 71 72 72 72 73 74 74 74 75 76 77 78 79 79 79 79 79 79 79 80 80 80 81 81 82 83 85 86 87 88 88 89 89 89 90 90 90 89 89 88 87 87 85 83 82 80 79 77 76 76 77 76 75 75 74 74 75 75 76 76 75 74 73 72 71 70 69 68 67 67 66 65
55 56 57 57 58 59 60 61 62 63 64 67 70 73 75 77 77 78 79 80 80 81 81 82 82 82 83 84 84 85 85 85 85 85 85 85 85 86 86 87 87 88 89 90 92 92 93 93 93 93 93 93 93 92 92 91 89 88 86 84 82 81 80 80 79 78 78 78 76 76 77 77 77 77 77 76 75 74 73 72 71 70 69 68 67
60 61 61 62 63 64 64 66 67 67 68 69 70 73 76 79 81 82 83 84 85 86 87 88 88 87 87 88 89 89 90 90 91 91 92 92 92 91 92 92 92 92 93 93 94 96 97 97 97 97 96 96 96 96 96 96 95 94 92 90 88 86 84 84 83 82 81 82 82 80 79 79 79 79 79 78 78 78 77 76 74 73 72 71 70
65 65 66 67 69 70 71 71 72 73 74 75 75 76 77 79 82 84 86 87 89 90 91 92 93 93 93 93 93 94 94 95 96 97 97 98 98 98 98 98 98 98 98 98 98 98 99 100 101 101 101 100 100 100 100 100 100 99 98 96 94 92 90 89 88 86 84 84 86 86 85 83 82 81 81 81 81 80 80 79 78 77 76 75 73
70 71 71 72 74 75 77 78 79 80 81 82 82 82 82 82 83 84 87 89 91 93 94 95 97 98 98 98 98 98 99 100 100 101 102 103 103 103 104 104 104 104 104 103 103 102 102 103 103 103 104 104 104 104 104 103 103 103 102 102 100 98 97 95 93 91 89 87 88 90 91 88 86 85 84 84 83 83 82 81 81 80 79 79 78
75 77 80 81 81 82 83 84 86 87 88 89 89 89 88 87 87 87 88 90 92 94 96 97 98 100 101 102 103 103 104 104 105 106 106 107 108 108 108 109 109 109 109 109 109 108 107 107 106 106 106 107 107 108 108 107 107 106 106 105 105 104 102 101 99 97 95 92 91 92 94 94 91 90 89 87 87 86 85 84 83 83 82 82 82
81 84 86 87 88 89 90 92 93 95 95 96 95 95 94 92 92 91 92 92 94 95 97 98 99 100 102 103 105 106 107 108 108 109 110 110 111 112 113 114 114 114 114 114 114 114 113 113 112 112 112 111 111 111 111 111 111 110 110 109 109 108 107 106 105 103 101 99 96 95 96 98 96 95 94 93 91 89 89 88 87 86 85 85 85
Wind_Direction
247 243 240 238 238 237 236 235 233 230 228 227 226 226 225 226 227 229 229 229 229 230 231 232 232 233 233 235 236 237 237 236 233 231 230 229 229 228 228 230 231 232 232 233 233 233 234 234 235 235 236 236 237 238 238 239 240 241 242 243 243 243 244 245 246 248 248 249 251 253 254 256 257 257 257 257 259 261 265 268 270 270 270 272 273
252 249 245 242 239 238 237 236 235 234 232 231 230 229 228 228 228 229 230 231 231 231 231 231 232 233 234 235 237 238 238 238 237 235 233 232 231 230 230 230 231 232 234 235 235 235 235 236 236 237 238 239 240 240 241 241 242 243 244 244 245 244 244 245 246 247 248 249 251 253 255 256 257 258 258 258 260 263 266 268 270 270 270 272 273
252 251 250 247 243 241 239 238 236 236 235 234 233 232 231 230 230 230 231 231 232 233 233 233 233 233 234 235 237 238 238 238 238 237 236 235 233 233 232 231 231 232 234 235 236 237 237 238 238 239 239 240 241 242 243 243 243 244 245 245 245 244 244 244 245 246 248 250 252 254 256 257 259 259 260 260 262 264 267 268 269 270 271 272 273
250 251 251 251 249 246 242 240 238 237 236 236 235 235 234 233 233 232 232 232 232 233 234 234 235 235 235 236 237 238 238 239 239 238 238 237 236 235 234 234 233 233 233 235 235 237 238 239 239 240 241 241 242 243 244 245 244 244 244 245 245 244 243 243 244 247 249 252 254 256 257 259 261 262 262 263 264 265 267 268 269 270 271 272 272
249 248 249 250 250 250 247 244 241 239 238 238 237 236 236 236 236 235 234 234 234 234 234 235 235 236 237 238 238 239 239 239 239 239 239 238 238 237 236 236 235 235 235 235 236 236 237 239 240 241 241 242 243 243 244 245 245 245 245 245 245 243 242 243 245 249 252 254 256 258 259 261 263 263 264 264 265 266 267 268 269 269 270 271 272
252 247 245 246 247 248 249 248 245 242 240 239 239 238 238 237 237 237 237 237 236 236 236 236 236 237 238 239 240 241 241 241 240 239 239 239 239 238 238 237 237 237 237 237 237 238 238 238 239 240 241 242 243 243 244 244 245 245 245 246 245 244 244 245 248 251 255 257 258 260 261 262 263 264 264 265 265 266 267 267 268 268 269 270 271
254 246 242 242 243 244 245 247 247 246 243 241 240 240 239 239 238 238 238 239 239 238 238 238 238 238 238 239 240 241 242 243 243 242 241 241 240 239 239 239 238 238 238 238 239 239 240 240 240 240 241 242 242 243 243 244 244 245 245 246 246 246 247 248 250 254 256 258 259 260 262 262 263 264 264 265 265 265 266 267 268 268 269 269 270
257 248 241 238 238 240 241 242 244 245 246 244 242 240 240 240 240 240 239 239 240 240 240 240 240 240 240 240 241 242 243 243 244 244 244 244 243 242 241 241 240 240 240 240 240 240 241 241 241 241 242 242 243 243 243 243 244 245 245 246 246 247 248 249 252 254 257 258 259 260 261 262 263 264 264 265 265 266 267 268 268 269 270 270 271
261 253 246 241 237 236 237 238 240 241 243 245 245 243 241 240 241 241 241 241 241 241 241 242 242 242 242 242 242 242 243 244 244 245 245 245 246 246 245 244 244 243 242 242 241 241 242 242 243 243 243 243 243 243 244 244 245 245 245 246 246 247 248 250 252 255 257 258 259 261 261 262 262 263 264 265 266 266 267 268 269 270 271 271 272
268 261 254 247 242 239 236 237 238 239 241 242 244 245 244 242 241 241 242 242 242 243 243 243 243 243 244 244 244 244 244 244 245 245 246 246 247 247 247 248 247 247 246 245 245 244 244 244 244 245 245 246 245 245 245 245 245 246 246 246 247 248 249 251 253 255 257 258 260 261 261 262 263 264 264 265 266 266 267 268 269 270 271 272 273
272 269 265 259 253 247 243 240 239 239 241 242 243 244 245 245 244 243 242 242 243 244 244 244 244 244 245 245 245 245 245 246 246 246 247 247 248 248 248 249 249 250 250 250 249 249 248 248 247 247 248 248 248 248 248 247 247 246 247 247 247 248 249 251 253 255 257 258 259 260 261 262 263 264 265 265 266 267 267 268 269 270 271 272 273
270 272 272 270 266 261 257 252 248 245 243 243 244 245 246 247 247 246 245 244 244 244 245 245 245 245 246 246 246 246 247 247 247 247 247 248 248 249 249 249 250 251 251 252 252 252 252 252 251 251 251 251 251 251 251 251 250 249 249 249 249 249 250 252 254 256 257 258 260 261 262 263 264 265 265 266 267 267 268 269 269 270 271 272 273
270 272 273 274 273 272 270 267 264 260 256 252 249 248 248 249 249 250 249 248 247 246 246 246 246 247 247 247 247 247 248 248 248 249 249 249 249 249 249 250 250 251 251 252 253 253 254 254 254 254 254 253 253 253 254 254 253 253 253 253 253 253 253 254 256 258 259 260 261 263 263 264 265 265 266 267 267 268 269 269 270 270 271 272 273
271 272 274 276 277 277 277 275 274 272 270 267 262 258 255 253 252 252 252 252 251 250 249 249 248 248 248 248 248 248 249 249 249 249 250 250 251 251 251 251 251 251 251 252 252 253 253 254 254 255 255 255 255 255 255 256 256 256 256 257 257 257 257 258 259 260 261 262 263 264 265 265 265 266 266 267 268 268 269 270 270 271 271 272 273
274 273 274 276 278 279 280 280 279 277 275 274 272 270 267 263 260 257 256 255 255 254 253 252 251 251 251 251 250 250 250 250 250 250 250 251 251 252 252 252 252 252 252 252 252 253 253 253 254 254 254 255 255 256 256 257 257 258 258 259 259 260 260 261 261 261 262 263 264 264 265 265 266 266 266 267 268 268 269 269 270 271 271 272 273
283 279 277 278 279 280 281 282 282 281 280 278 276 274 272 271 269 267 263 261 259 258 257 255 255 254 253 253 253 253 252 252 252 251 251 251 251 252 252 253 253 254 254 254 254 254 254 254 254 254 254 255 255 256 256 257 258 258 259 260 260 261 261 262 262 262 263 263 263 264 265 266 266 266 266 267 267 268 269 269 270 270 271 272 273
292 290 287 284 283 283 283 284 283 282 282 281 280 277 275 273 272 272 270 268 266 264 262 260 259 257 256 256 255 255 255 254 254 253 253 253 253 253 253 253 253 254 255 255 256 256 256 256 256 256 256 256 256 257 257 257 258 258 259 260 260 261 261 262 262 263 263 263 263 264 264 265 266 266 267 267 267 268 268 269 270 270 271 272 272
293 295 296 294 291 288 286 285 285 284 283 282 281 280 279 277 275 274 273 272 271 269 267 266 264 262 260 259 257 257 256 256 256 255 255 255 254 254 254 254 254 254 255 255 256 256 257 257 258 258 258 258 258 258 258 259 259 259 260 260 261 261 262 262 263 263 263 263 264 264 264 265 265 266 266 267 267 268 268 269 269 270 271 272 272
294 295 296 297 297 294 290 287 285 285 284 282 281 281 280 279 278 276 275 274 274 273 272 271 269 267 265 264 262 260 258 257 257 257 256 256 256 256 255 255 256 256 256 256 256 256 257 257 258 259 259 260 260 260 260 260 260 261 261 261 262 262 262 263 263 264 264 264 264 265 265 265 266 266 266 267 267 268 268 269 269 270 271 272 272
301 299 298 297 297 297 295 291 287 284 283 281 279 278 278 279 278 278 277 276 275 274 274 273 272 271 269 268 267 265 263 261 259 258 257 256 256 257 257 257 257 257 257 257 257 257 257 257 258 258 259 259 260 260 261 261 261 261 262 262 262 263 263 264 264 265 265 265 266 266 266 266 266 267 267 267 268 268 269 269 270 270 271 272 272
305 304 303 299 297 296 296 294 291 288 285 282 279 276 274 274 274 275 276 275 274 274 274 274 273 273 272 271 269 268 267 265 264 262 260 258 257 257 257 257 257 257 257 258 258 257 257 257 258 258 258 259 259 260 260 261 261 261 262 262 263 263 264 264 265 265 266 266 266 267 267 267 268 268 268 268 269 269 270 270 270 271 271 272 272
300 302 302 300 297 295 292 292 291 290 289 286 284 281 277 274 272 271 271 272 272 272 272 273 273 273 273 272 272 271 269 268 267 266 265 264 262 261 260 259 258 258 258 258 258 258 258 259 259 259 259 259 259 259 260 260 260 261 261 261 262 262 263 263 264 265 265 266 266 267 267 268 268 268 269 269 269 270 270 270 271 271 271 271 272
294 294 294 294 293 292 290 288 287 288 288 288 287 286 283 279 275 272 270 269 268 269 269 269 269 270 271 271 272 272 271 271 270 269 269 268 267 266 265 263 262 261 260 260 259 259 260 260 261 261 261 260 260 260 260 260 260 261 261 261 262 262 262 262 263 263 264 265 265 266 266 267 267 267 268 268 269 269 269 270 270 270 270 271 271
288 286 285 285 287 288 289 289 288 287 287 288 288 287 286 284 280 276 272 270 268 267 266 266 266 266 267 268 269 269 271 271 272 272 271 271 271 270 269 268 267 266 265 264 264 263 262 262 262 263 263 263 263 263 262 262 262 262 261 262 262 262 262 262 263 263 263 264 264 265 265 265 266 266 267 267 268 268 268 269 269 270 270 270 270
286 284 282 282 283 286 288 290 291 291 290 289 287 287 286 284 282 280 277 274 272 270 268 266 265 264 264 265 266 267 268 269 270 270 271 271 272 272 271 271 270 270 270 269 269 268 267 266 266 265 265 264 264 265 265 264 264 264 263 263 263 263 263 263 263 263 263 264 264 264 265 265 265 266 266 266 267 267 268 268 268 269 269 270 270
285 286 287 287 287 287 288 289 290 291 291 290 288 286 285 283 282 280 279 277 276 274 272 271 269 267 265 264 264 264 265 266 267 267 268 269 269 270 271 271 271 271 271 271 271 271 270 270 269 269 269 268 267 267 266 266 266 266 266 266 265 265 265 265 264 264 264 264 265 265 265 265 266 266 266 267 267 267 267 268 268 269 269 270 270
287 288 289 290 290 290 289 289 288 288 288 289 288 287 286 284 282 280 279 278 277 276 275 274 273 272 271 269 267 265 265 265 265 266 266 267 267 267 268 269 269 270 270 271 271 271 271 271 271 271 271 270 270 270 269 269 269 268 268 268 268 268 268 268 267 267 267 266 266 266 266 266 267 267 267 268 268 268 269 269 269 270 270 270 271
287 288 289 289 290 290 290 290 289 288 287 287 287 287 286 285 284 283 281 279 278 277 276 275 274 274 274 273 273 271 269 268 267 266 265 265 265 265 266 266 266 267 268 268 269 269 270 270 270 271 271 271 271 271 271 271 271 271 270 270 270 270 270 270 270 269 269 269 269 268 268 268 268 269 269 269 269 270 270 270 270 270 271 271 271
286 287 287 288 289 289 290 290 290 290 290 289 288 287 287 287 286 286 285 284 282 280 278 276 275 274 274 274 274 274 274 272 271 270 268 267 266 265 265 265 265 265 265 266 266 266 266 267 268 268 269 269 270 270 270 271 271 271 271 271 271 271 271 271 271 271 271 271 270 270 270 270 269 270 270 270 270 270 270 270 271 271 271 271 271
290 289 289 289 289 290 290 291 290 290 289 289 289 289 288 288 288 287 286 286 285 284 282 280 277 275 274 274 274 274 274 273 273 273 272 271 270 269 267 266 265 265 265 265 264 264 264 264 264 265 265 266 267 267 268 268 269 270 270 271 271 271 271 271 272 272 272 272 271 271 271 271 270 270 270 270 270 271 271 270 270 271 271 271 272
294 293 293 292 291 291 291 291 291 291 290 289 289 289 289 288 288 288 287 286 285 285 285 284 282 280 277 276 275 275 274 274 273 272 272 272 272 272 271 270 268 267 266 265 265 265 264 263 262 262 263 263 264 264 265 265 265 266 267 268 269 269 270 270 270 271 271 271 271 271 271 271 271 271 271 271 271 271 271 271 271 271 271 271 272
295 295 295 294 293 293 292 291 290 291 290 290 289 288 287 287 287 287 287 287 286 286 285 285 285 284 282 280 279 277 276 276 275 273 272 272 271 271 271 271 270 270 269 268 267 266 266 265 264 262 262 262 263 263 263 263 263 263 264 265 266 266 267 267 268 268 268 269 269 270 270 270 270 271 271 271 272 272 272 271 271 272 272 272 272
294 294 293 294 293 293 293 292 291 291 290 290 290 289 287 287 286 286 286 285 285 285 285 284 284 284 284 283 282 280 279 278 277 276 274 273 272 271 270 270 270 270 270 270 270 269 268 267 266 265 264 263 263 264 264 263 263 263 263 263 264 264 264 265 265 265 265 265 266 267 267 268 268 269 270 270 271 271 271 271 272 272 273 273 273
292 292 292 291 292 292 292 292 292 291 290 290 289 289 288 287 286 285 285 284 284 283 283 283 283 283 283 283 282 282 281 280 279 278 277 275 274 273 272 271 270 270 270 270 270 270 269 268 267 267 266 265 264 264 265 265 264 263 264 264 264 264 263 263 263 263 264 264 264 264 265 265 266 267 267 267 268 268 269 270 271 271 271 272 272
290 290 290 290 290 291 291 291 291 291 290 290 289 289 288 287 287 286 285 284 283 283 282 282 281 281 281 281 281 281 281 280 280 279 279 278 276 275 274 272 271 271 271 270 270 269 269 269 269 269 268 267 266 264 265 266 265 264 264 265 265 265 264 264 263 263 263 263 263 263 263 263 264 264 265 265 265 266 266 267 268 268 269 269 269
290 289 289 289 289 289 289 290 290 290 290 290 289 289 288 287 287 286 285 283 283 282 281 281 281 280 279 279 279 279 279 279 279 279 278 278 277 277 276 274 273 272 271 271 270 270 269 269 269 269 269 269 268 267 265 265 266 265 264 263 264 265 265 265 265 264 264 263 263 263 262 262 262 262 263 263 263 263 264 264 265 265 266 267 267
292 292 291 291 291 290 290 290 289 289 288 288 287 287 286 286 285 285 284 283 282 281 280 280 280 280 279 279 278 277 277 277 277 277 277 277 276 276 276 275 274 273 272 271 271 270 270 269 269 268 268 268 268 268 267 266 266 267 266 264 263 264 264 264 265 265 265 264 263 262 262 262 262 261 261 261 262 262 262 262 263 263 263 264 264
293 293 293 293 293 292 292 291 290 289 288 287 286 285 284 283 282 282 281 281 280 279 279 278 278 278 278 278 278 277 277 276 276 276 276 275 275 275 275 275 274 274 273 273 272 271 270 269 269 269 268 268 268 268 267 267 266 266 267 266 265 264 264 264 265 265 265 265 264 264 263 263 262 262 262 261 261 261 261 261 261 261 261 261 261
293 293 293 292 292 292 291 291 290 289 288 287 286 284 283 281 280 279 279 278 278 278 277 277 276 276 276 276 276 276 276 275 275 274 274 274 274 274 273 273 273 273 272 272 272 272 271 270 270 269 268 268 268 268 267 267 266 266 266 266 267 267 266 265 264 264 264 264 265 265 265 265 265 264 263 263 263 262 262 261 260 260 260 259 259
295 294 293 293 292 291 290 290 289 287 286 285 284 283 282 281 280 279 278 277 277 276 276 275 275 274 274 274 274 274 274 274 273 273 272 272 272 272 272 272 272 271 271 271 271 271 271 270 270 270 269 268 268 268 267 267 266 266 266 266 266 267 267 266 265 264 264 263 264 264 265 265 266 265 265 265 265 265 264 263 261 261 260 259 259
298 297 296 295 294 292 291 290 288 287 285 284 283 282 281 280 279 278 277 277 275 275 274 273 273 273 273 273 273 272 272 272 272 272 271 271 271 270 271 271 271 271 270 270 270 270 269 269 269 269 269 269 268 268 267 267 266 266 266 266 266 266 266 267 267 266 265 264 264 264 264 264 264 264 265 265 266 266 265 265 264 263 263 262 261
298 297 296 295 294 292 291 289 287 286 284 283 281 280 279 278 277 276 275 274 273 273 272 271 271 271 271 271 271 271 271 270 270 270 270 270 270 269 269 269 269 269 269 270 269 269 269 268 268 268 268 268 267 267 267 266 266 265 265 266 266 266 265 265 266 266 266 266 265 265 264 264 264 263 263 263 264 264 264 265 265 265 265 265 264
296 296 295 293 292 291 290 288 287 285 283 282 280 278 277 275 274 273 273 272 272 271 270 270 270 271 271 271 271 271 270 270 269 269 269 269 269 269 269 269 268 268 268 268 268 268 268 268 268 268 267 267 266 266 266 265 265 264 264 265 265 266 265 265 264 265 265 265 265 265 265 265 264 264 263 262 262 262 262 263 263 264 265 265 265
294 294 293 292 290 289 288 287 286 285 283 281 280 278 277 276 275 274 273 272 272 272 272 271 271 271 271 271 271 270 270 270 269 269 269 268 268 268 268 268 268 268 268 267 267 267 267 268 268 268 267 267 266 266 265 264 264 263 263 263 263 264 265 265 264 264 264 264 265 265 264 265 265 264 264 263 262 262 261 261 261 262 262 263 264
291 292 292 291 289 288 287 286 286 285 284 282 280 279 277 276 275 274 274 273 273 273 273 273 272 272 271 270 270 270 270 269 269 269 268 268 267 268 268 268 268 268 268 268 268 267 267 267 267 267 267 267 267 266 266 265 264 263 262 262 262 262 263 264 264 264 264 263 263 264 264 264 264 264 264 264 263 262 262 261 261 261 261 261 261
290 290 291 290 289 289 287 286 285 285 284 283 281 279 278 276 275 274 273 273 273 273 273 273 273 273 272 271 270 270 269 269 269 268 268 267 267 267 267 267 267 267 267 267 267 267 267 266 266 266 266 266 266 267 267 266 266 265 263 262 261 261 261 261 262 263 264 263 262 262 263 263 263 263 263 263 263 262 262 261 261 260 260 260 260
288 289 289 290 290 290 290 288 288 287 286 286 284 282 279 277 275 274 273 273 272 272 272 272 272 272 272 271 271 270 270 269 269 268 268 268 267 267 267 267 266 266 266 266 266 266 266 266 266 265 265 265 265 266 266 266 266 266 265 264 262 261 260 260 260 261 262 263 263 262 261 262 262 262 262 262 262 261 261 261 260 260 260 260 259
290 290 290 290 292 293 294 293 292 291 290 290 289 287 284 281 278 275 274 273 272 272 272 272 272 272 272 271 271 271 271 270 270 269 268 268 268 267 267 267 266 266 266 266 266 266 266 266 266 265 265 265 264 264 264 265 265 265 266 265 264 263 261 260 260 259 259 261 263 263 262 261 261 261 262 261 261 261 261 260 260 259 259 259 259
296 297 297 297 296 297 297 297 297 296 295 294 293 291 289 286 283 279 277 275 273 273 272 272 273 273 272 272 271 270 270 270 270 269 269 268 268 268 268 267 267 266 266 266 266 266 265 265 265 265 265 265 264 264 263 263 263 264 264 264 264 264 263 261 260 259 258 258 259 261 262 261 261 261 261 261 261 261 261 260 260 259 259 258 258
303 304 305 305 304 303 302 302 302 301 300 299 297 296 294 291 288 285 282 280 277 276 274 273 273 273 273 273 272 271 270 270 270 269 269 268 268 267 267 267 267 267 266 266 265 265 265 265 265 265 264 264 264 264 263 263 263 263 263 263 263 263 263 263 261 260 259 257 256 257 260 261 261 260 260 260 260 261 261 260 260 259 259 258 258
307 307 308 307 307 307 306 305 305 304 303 302 301 300 298 296 293 290 287 285 282 280 278 277 276 275 275 274 274 273 272 271 270 270 269 269 269 268 267 267 267 267 266 266 266 265 265 264 264 264 264 264 264 263 263 263 262 262 262 262 262 262 262 262 262 261 260 259 257 256 256 258 259 260 260 259 259 260 260 260 260 259 259 258 258
Height
10814 10814 10815 10817 10818 10820 10821 10823 10824 10825 10826 10827 10829 10830 10832 10834 10836 10837 10839 10841 10842 10844 10845 10847 10849 10850 10852 10854 10856 10858 10859 10861 10862 10863 10864 10865 10866 10867 10869 10871 10873 10874 10876 10877 10879 10880 10881 10882 10883 10885 10886 10887 10887 10888 10889 10890 10891 10892 10894 10895 10896 10897 10898 10899 10900 10901 10902 10903 10904 10905 10906 10906 10907 10908 10908 10909 10909 10910 10910 10911 10911 10911 10912 10912 10912
10813 10813 10814 10815 10816 10818 10819 10821 10822 10824 10825 10826 10827 10829 10831 10832 10833 10835 10837 10839 10840 10841 10843 10844 10846 10848 10850 10852 10853 10855 10857 10858 10860 10860 10861 10863 10864 10865 10866 10867 10869 10871 10873 10874 10876 10877 10878 10879 10880 10882 10883 10884 10884 10885 10886 10887 10888 10890 10891 10892 10893 10894 10895 10896 10897 10898 10900 10901 10901 10901 10902 10903 10904 10905 10905 10906 10907 10907 10908 10908 10908 10908 10908 10909 10909
10812 10812 10813 10814 10815 10816 10817 10819 10820 10822 10823 10825 10826 10827 10829 10830 10831 10833 10834 10836 10838 10839 10841 10842 10844 10845 10847 10849 10850 10852 10854 10855 10857 10858 10859 10860 10861 10862 10863 10864 10865 10867 10869 10870 10872 10874 10875 10876 10877 10878 10879 10880 10881 10882 10883 10884 10885 10886 10888 10889 10890 10891 10892 10893 10894 10895 10896 10897 10897 10898 10899 10900 10901 10902 10902 10903 10903 10904 10904 10905 10905 10905 10905 10905 10905
10811 10811 10812 10813 10813 10814 10816 10817 10819 10820 10821 10823 10824 10825 10827 10828 10829 10831 10832 10834 10835 10837 10838 10840 10841 10843 10844 10846 10847 10849 10850 10852 10853 10855 10856 10857 10858 10859 10861 10862 10863 10864 10865 10866 10868 10870 10871 10873 10873 10875 10876 10877 10878 10879 10880 10881 10882 10883 10884 10885 10886 10888 10889 10890 10891 10892 10893 10893 10894 10894 10895 10897 10898 10898 10898 10899 10899 10900 10900 10901 10901 10901 10901 10901 10902
10809 10810 10811 10811 10812 10813 10814 10815 10816 10818 10819 10821 10822 10823 10825 10826 10827 10828 10830 10831 10833 10834 10835 10837 10839 10840 10842 10843 10844 10845 10846 10848 10849 10851 10853 10854 10855 10856 10858 10860 10861 10862 10862 10863 10865 10866 10867 10869 10870 10871 10872 10873 10874 10875 10876 10877 10878 10879 10880 10881 10883 10884 10885 10887 10888 10889 10889 10890 10890 10891 10892 10893 10893 10894 10894 10894 10895 10896 10896 10896 10897 10897 10897 10897 10898
10808 10808 10809 10810 10810 10811 10812 10813 10814 10815 10817 10818 10820 10821 10822 10823 10824 10826 10827 10828 10830 10831 10832 10834 10835 10837 10838 10840 10841 10842 10843 10844 10845 10847 10849 10850 10851 10853 10855 10856 10857 10858 10859 10860 10861 10862 10863 10864 10865 10866 10867 10869 10870 10871 10872 10873 10874 10875 10876 10878 10879 10880 10881 10883 10884 10884 10885 10886 10887 10887 10888 10888 10889 10889 10890 10890 10890 10891 10892 10892 10892 10892 10893 10893 10893
10806 10806 10807 10807 10808 10809 10810 10811 10811 10813 10814 10815 10817 10818 10819 10821 10822 10823 10824 10825 10826 10828 10829 10831 10832 10834 10835 10837 10838 10839 10840 10841 10842 10844 10845 10846 10848 10849 10850 10852 10853 10854 10856 10857 10858 10859 10860 10860 10861 10862 10863 10864 10865 10866 10867 10868 10869 10871 10872 10873 10875 10876 10877 10878 10879 10879 10880 10881 10882 10883 10884 10884 10884 10885 10886 10886 10886 10887 10887 10887 10887 10888 10888 10889 10889
10804 10804 10805 10805 10806 10806 10807 10808 10809 10810 10811 10812 10814 10815 10816 10818 10819 10820 10821 10822 10823 10825 10826 10827 10829 10830 10832 10833 10835 10836 10837 10838 10839 10840 10842 10843 10845 10846 10847 10848 10849 10850 10852 10853 10854 10855 10856 10857 10857 10858 10858 10859 10860 10862 10863 10864 10865 10866 10868 10869 10870 10872 10873 10873 10874 10875 10875 10876 10877 10878 10879 10880 10880 10880 10881 10881 10881 10882 10883 10883 10883 10883 10883 10884 10884
10801 10802 10802 10803 10803 10804 10804 10805 10806 10807 10808 10809 10810 10811 10813 10814 10816 10817 10818 10819 10820 10821 10823 10824 10826 10827 10828 10830 10831 10832 10833 10834 10836 10837 10838 10840 10841 10842 10843 10844 10845 10846 10848 10849 10850 10851 10852 10853 10853 10854 10855 10856 10857 10858 10859 10860 10860 10862 10863 10865 10866 10867 10868 10869 10869 10870 10871 10871 10872 10873 10874 10875 10875 10875 10876 10876 10877 10877 10878 10878 10878 10878 10878 10879 10879
10799 10800 10801 10801 10802 10802 10803 10803 10804 10804 10805 10806 10807 10808 10809 10811 10812 10814 10815 10816 10817 10819 10820 10821 10822 10824 10825 10826 10827 10828 10829 10831 10832 10833 10834 10836 10837 10838 10840 10841 10842 10843 10844 10845 10847 10848 10849 10849 10850 10851 10852 10853 10853 10854 10855 10856 10857 10858 10859 10860 10862 10863 10864 10864 10865 10865 10866 10866 10867 10868 10869 10869 10870 10871 10871 10871 10872 10873 10873 10874 10874 10874 10874 10874 10874
10798 10798 10799 10800 10801 10801 10802 10802 10803 10803 10804 10804 10805 10806 10807 10808 10809 10810 10812 10813 10814 10815 10817 10818 10819 10821 10822 10823 10824 10825 10826 10827 10828 10829 10830 10832 10833 10834 10836 10837 10838 10839 10841 10842 10843 10844 10845 10846 10847 10848 10849 10849 10850 10851 10852 10852 10853 10854 10855 10856 10857 10858 10859 10860 10860 10860 10861 10862 10862 10863 10864 10864 10865 10866 10866 10866 10867 10868 10868 10868 10869 10869 10869 10869 10869
10797 10797 10798 10799 10800 10801 10801 10802 10802 10803 10803 10804 10804 10805 10805 10806 10807 10808 10809 10810 10811 10812 10813 10815 10816 10817 10819 10820 10820 10821 10822 10824 10825 10825 10826 10828 10829 10830 10832 10833 10834 10835 10837 10838 10839 10840 10841 10842 10843 10844 10845 10845 10846 10847 10848 10848 10849 10850 10851 10852 10853 10854 10855 10855 10856 10856 10856 10857 10858 10859 10859 10859 10860 10861 10861 10862 10862 10862 10863 10863 10864 10864 10864 10864 10864
10796 10796 10797 10797 10798 10799 10800 10801 10802 10803 10803 10803 10804 10804 10804 10805 10805 10806 10807 10808 10808 10810 10811 10812 10813 10814 10815 10816 10816 10817 10819 10820 10821 10822 10823 10824 10825 10826 10827 10828 10829 10831 10832 10833 10834 10835 10835 10836 10838 10839 10840 10841 10841 10842 10843 10844 10844 10845 10847 10848 10848 10849 10850 10851 10852 10852 10852 10852 10853 10854 10854 10854 10855 10856 10856 10857 10857 10857 10857 10858 10858 10858 10859 10859 10859
10795 10795 10796 10796 10797 10798 10799 10800 10801 10802 10802 10803 10803 10804 10804 10804 10804 10804 10805 10806 10806 10807 10808 10809 10810 10811 10811 10812 10812 10813 10815 10816 10817 10818 10819 10820 10821 10822 10823 10824 10825 10825 10826 10827 10828 10828 10829 10830 10832 10833 10834 10835 10836 10837 10838 10839 10839 10840 10842 10843 10843 10844 10845 10845 10846 10847 10847 10848 10848 10848 10848 10849 10850 10850 10851 10851 10851 10851 10851 10852 10853 10853 10853 10854 10854
10794 10795 10795 10795 10796 10797 10798 10799 10799 10800 10801 10801 10802 10802 10803 10803 10803 10803 10803 10804 10804 10805 10805 10806 10807 10808 10808 10809 10809 10810 10811 10811 10813 10813 10814 10816 10817 10818 10819 10819 10820 10820 10821 10822 10822 10823 10823 10824 10825 10827 10828 10829 10830 10831 10832 10833 10834 10835 10836 10837 10838 10838 10838 10839 10840 10841 10842 10843 10843 10843 10842 10842 10843 10844 10845 10845 10846 10846 10846 10846 10847 10847 10847 10848 10848
10793 10794 10794 10795 10795 10796 10797 10797 10798 10798 10798 10799 10799 10800 10800 10800 10801 10801 10801 10802 10802 10802 10803 10804 10804 10805 10805 10806 10806 10807 10807 10808 10809 10809 10810 10811 10812 10813 10813 10814 10815 10816 10817 10817 10818 10818 10819 10819 10820 10821 10823 10823 10824 10825 10826 10827 10828 10829 10830 10831 10831 10831 10831 10832 10832 10834 10835 10837 10837 10837 10837 10836 10837 10838 10839 10839 10840 10840 10840 10840 10841 10841 10841 10842 10842
10792 10793 10793 10794 10794 10795 10795 10796 10796 10796 10796 10796 10797 10797 10797 10797 10798 10798 10798 10799 10799 10800 10800 10800 10801 10802 10802 10802 10803 10803 10804 10804 10805 10806 10806 10806 10807 10808 10808 10809 10810 10811 10812 10812 10813 10814 10815 10815 10815 10816 10817 10818 10819 10820 10821 10821 10822 10823 10824 10824 10825 10825 10825 10825 10825 10826 10828 10829 10830 10831 10831 10831 10831 10831 10832 10833 10834 10834 10834 10835 10835 10835 10835 10836 10836
10792 10792 10792 10793 10793 10793 10794 10794 10794 10794 10794 10794 10794 10794 10794 10794 10795 10795 10795 10796 10796 10796 10797 10797 10797 10798 10798 10798 10799 10800 10800 10801 10801 10802 10802 10802 10803 10803 10804 10804 10805 10806 10806 10807 10808 10809 10810 10810 10810 10811 10812 10813 10814 10815 10816 10816 10817 10818 10818 10819 10819 10819 10819 10819 10819 10820 10821 10822 10823 10825 10825 10825 10825 10825 10826 10827 10827 10828 10828 10829 10829 10829 10829 10829 10830
10792 10792 10791 10791 10791 10791 10792 10792 10792 10792 10792 10792 10792 10792 10791 10791 10791 10792 10792 10792 10793 10793 10793 10794 10794 10794 10794 10794 10795 10795 10796 10796 10797 10797 10798 10798 10798 10799 10799 10800 10800 10801 10802 10802 10802 10804 10804 10804 10805 10805 10806 10807 10808 10809 10810 10810 10811 10812 10812 10813 10813 10813 10813 10813 10814 10814 10815 10815 10816 10818 10818 10819 10819 10819 10820 10821 10821 10821 10822 10822 10823 10823 10823 10823 10823
10791 10791 10790 10790 10790 10789 10789 10789 10789 10789 10789 10789 10789 10789 10789 10789 10788 10788 10789 10789 10789 10789 10790 10790 10790 10790 10791 10791 10791 10791 10791 10791 10792 10792 10793 10793 10794 10794 10795 10795 10796 10796 10796 10796 10797 10799 10799 10798 10799 10799 10800 10801 10801 10802 10803 10804 10804 10805 10806 10807 10807 10807 10807 10807 10808 10808 10809 10809 10810 10811 10811 10812 10812 10813 10813 10814 10815 10815 10815 10816 10817 10817 10817 10817 10817
10790 10790 10789 10789 10788 10788 10787 10787 10787 10787 10787 10786 10786 10786 10786 10786 10786 10786 10785 10785 10785 10786 10786 10786 10786 10786 10787 10787 10787 10787 10787 10787 10787 10787 10787 10788 10789 10789 10790 10790 10791 10791 10791 10791 10791 10793 10793 10792 10793 10794 10794 10795 10795 10795 10796 10796 10797 10798 10799 10800 10800 10801 10801 10801 10802 10802 10802 10803 10803 10804 10804 10805 10806 10806 10807 10807 10808 10808 10809 10809 10810 10810 10810 10811 10811
10789 10789 10788 10787 10786 10786 10786 10785 10784 10784 10784 10784 10784 10784 10784 10784 10784 10783 10783 10782 10782 10782 10782 10782 10782 10782 10782 10782 10782 10782 10782 10782 10782 10783 10783 10783 10784 10784 10785 10785 10786 10786 10786 10786 10786 10787 10788 10787 10788 10788 10788 10788 10789 10789 10789 10790 10790 10791 10792 10792 10793 10794 10794 10795 10795 10796 10796 10796 10797 10797 10798 10798 10799 10800 10800 10801 10801 10802 10802 10802 10803 10804 10804 10805 10805
10787 10787 10786 10785 10784 10783 10783 10783 10783 10782 10782 10782 10782 10781 10781 10781 10781 10781 10780 10780 10780 10779 10779 10779 10778 10778 10778 10778 10778 10778 10778 10778 10778 10778 10779 10779 10779 10779 10780 10780 10780 10780 10780 10781 10781 10782 10783 10783 10783 10783 10782 10783 10783 10783 10783 10784 10784 10784 10785 10785 10786 10786 10787 10787 10788 10789 10789 10789 10790 10790 10791 10791 10792 10793 10793 10794 10794 10795 10795 10795 10796 10796 10797 10798 10798
10785 10785 10784 10783 10782 10781 10780 10780 10780 10780 10780 10780 10779 10779 10779 10779 10779 10778 10778 10777 10777 10776 10776 10776 10775 10775 10774 10774 10774 10774 10774 10774 10774 10774 10774 10775 10775 10775 10775 10775 10775 10775 10775 10775 10776 10777 10778 10778 10778 10778 10777 10777 10778 10777 10778 10778 10778 10778 10779 10779 10779 10780 10780 10780 10781 10782 10782 10782 10783 10783 10784 10784 10785 10786 10786 10787 10787 10788 10788 10788 10789 10789 10790 10790 10791
10782 10782 10781 10781 10780 10779 10779 10778 10778 10778 10777 10777 10777 10776 10776 10776 10775 10775 10775 10775 10774 10773 10773 10773 10772 10772 10771 10771 10771 10770 10770 10770 10770 10770 10770 10770 10770 10770 10770 10770 10770 10770 10770 10771 10771 10771 10772 10772 10772 10772 10771 10772 10772 10772 10772 10772 10772 10772 10773 10773 10773 10773 10774 10774 10775 10775 10775 10776 10776 10777 10777 10777 10778 10779 10779 10780 10781 10781 10782 10782 10782 10782 10782 10783 10784
10779 10779 10779 10779 10778 10778 10778 10777 10776 10776 10775 10774 10774 10774 10773 10773 10772 10772 10771 10771 10771 10770 10770 10770 10769 10768 10768 10768 10767 10767 10767 10766 10766 10766 10766 10766 10766 10766 10766 10765 10766 10766 10766 10766 10766 10766 10766 10767 10767 10766 10765 10766 10766 10766 10766 10766 10766 10766 10767 10767 10767 10768 10768 10768 10769 10769 10769 10769 10770 10770 10770 10770 10771 10771 10772 10773 10774 10774 10775 10776 10776 10776 10776 10777 10777
10777 10777 10776 10776 10776 10776 10775 10775 10774 10774 10773 10772 10771 10771 10770 10770 10769 10769 10768 10768 10767 10767 10767 10766 10766 10765 10765 10764 10764 10764 10763 10763 10763 10763 10762 10762 10762 10762 10762 10761 10761 10761 10761 10761 10761 10761 10761 10761 10761 10761 10760 10760 10760 10760 10760 10760 10760 10760 10761 10761 10762 10762 10762 10763 10763 10763 10763 10763 10764 10764 10764 10764 10764 10765 10765 10766 10767 10768 10769 10769 10770 10770 10770 10771 10771
10775 10775 10774 10774 10773 10772 10772 10772 10771 10771 10770 10769 10768 10767 10767 10766 10766 10766 10765 10764 10764 10763 10763 10762 10762 10762 10761 10760 10760 10760 10760 10759 10759 10759 10759 10758 10758 10758 10757 10757 10757 10756 10756 10756 10756 10756 10756 10756 10756 10756 10755 10755 10755 10755 10755 10754 10754 10754 10755 10755 10756 10757 10757 10757 10757 10757 10758 10758 10758 10758 10758 10758 10758 10759 10759 10760 10761 10761 10762 10763 10764 10764 10764 10765 10766
10773 10773 10772 10772 10771 10770 10769 10769 10768 10768 10767 10766 10765 10765 10764 10763 10763 10762 10762 10761 10760 10760 10759 10758 10758 10757 10757 10757 10756 10756 10755 10755 10755 10755 10755 10754 10754 10754 10753 10753 10752 10752 10752 10751 10751 10751 10751 10751 10751 10750 10750 10749 10749 10750 10750 10749 10749 10749 10749 10749 10750 10750 10750 10751 10751 10752 10752 10752 10752 10752 10752 10752 10753 10753 10753 10754 10755 10755 10756 10757 10757 10757 10758 10759 10760
10770 10770 10770 10770 10769 10768 10767 10766 10765 10765 10764 10763 10763 10762 10761 10761 10760 10759 10759 10758 10757 10756 10755 10754 10754 10753 10753 10752 10752 10751 10751 10751 10751 10751 10750 10750 10750 10749 10749 10748 10748 10747 10747 10746 10746 10746 10746 10746 10746 10745 10745 10744 10744 10743 10744 10744 10744 10743 10743 10743 10744 10745 10745 10745 10745 10746 10746 10746 10746 10746 10746 10747 10747 10747 10748 10748 10749 10749 10750 10751 10751 10751 10752 10753 10754
10766 10766 10766 10766 10766 10765 10765 10764 10762 10761 10761 10760 10760 10759 10758 10757 10757 10756 10755 10754 10753 10752 10751 10750 10749 10748 10748 10748 10747 10746 10746 10746 10746 10746 10745 10745 10745 10745 10744 10744 10743 10743 10742 10742 10741 10741 10740 10740 10740 10740 10739 10739 10738 10737 10738 10738 10738 10738 10738 10738 10738 10739 10739 10739 10739 10739 10740 10740 10740 10740 10740 10741 10741 10742 10742 10743 10743 10744 10744 10745 10745 10745 10746 10747 10748
10762 10762 10761 10761 10761 10761 10761 10760 10759 10758 10757 10756 10756 10755 10755 10754 10753 10752 10752 10750 10749 10748 10747 10746 10745 10744 10743 10743 10743 10742 10741 10740 10740 10740 10740 10740 10740 10739 10739 10738 10738 10738 10737 10737 10736 10736 10735 10734 10734 10734 10734 10734 10733 10732 10732 10732 10733 10733 10732 10732 10732 10733 10734 10733 10733 10733 10733 10733 10734 10734 10734 10735 10735 10736 10737 10737 10738 10739 10739 10739 10739 10740 10741 10742 10742
10758 10758 10757 10756 10755 10755 10755 10755 10755 10754 10753 10752 10751 10751 10750 10750 10749 10748 10747 10746 10745 10744 10743 10742 10741 10740 10738 10738 10738 10737 10736 10735 10734 10734 10734 10733 10733 10733 10733 10732 10732 10733 10733 10732 10731 10730 10730 10729 10728 10728 10728 10728 10728 10727 10726 10726 10727 10727 10726 10727 10726 10727 10727 10727 10727 10727 10726 10727 10727 10727 10728 10728 10729 10730 10731 10732 10733 10733 10733 10734 10734 10735 10736 10736 10737
10755 10754 10753 10753 10752 10751 10750 10750 10749 10749 10748 10747 10746 10745 10745 10745 10744 10744 10743 10742 10740 10739 10738 10737 10736 10735 10734 10733 10732 10731 10730 10729 10728 10728 10727 10727 10726 10726 10726 10726 10726 10727 10727 10726 10726 10725 10724 10723 10723 10722 10722 10722 10723 10722 10720 10719 10721 10722 10722 10721 10721 10720 10720 10720 10720 10720 10720 10720 10720 10720 10721 10722 10723 10724 10725 10726 10726 10727 10727 10728 10729 10729 10730 10731 10731
10751 10751 10750 10749 10748 10747 10747 10746 10745 10744 10743 10742 10741 10740 10739 10739 10738 10738 10737 10736 10735 10734 10732 10731 10731 10730 10729 10728 10727 10726 10725 10724 10723 10722 10721 10720 10720 10719 10719 10719 10719 10720 10720 10719 10719 10719 10718 10718 10717 10717 10716 10716 10717 10717 10715 10714 10714 10716 10717 10716 10714 10714 10714 10713 10713 10714 10714 10714 10713 10713 10714 10715 10716 10717 10718 10719 10720 10721 10722 10723 10723 10723 10724 10725 10726
10747 10746 10745 10745 10744 10743 10743 10742 10741 10740 10739 10737 10736 10735 10734 10733 10732 10731 10731 10730 10729 10728 10727 10725 10724 10723 10723 10722 10722 10720 10719 10718 10717 10716 10715 10714 10713 10712 10712 10711 10711 10712 10712 10712 10712 10712 10712 10711 10711 10711 10710 10710 10710 10709 10709 10709 10708 10708 10710 10710 10708 10707 10707 10706 10707 10707 10708 10707 10706 10706 10707 10708 10709 10710 10711 10712 10713 10714 10715 10716 10717 10717 10718 10719 10720
10740 10739 10739 10738 10738 10738 10737 10737 10736 10735 10734 10733 10732 10730 10729 10727 10726 10724 10724 10723 10722 10722 10721 10719 10718 10717 10715 10715 10715 10714 10713 10712 10710 10710 10709 10708 10707 10706 10705 10704 10704 10704 10704 10704 10704 10704 10703 10704 10703 10704 10704 10704 10703 10702 10702 10702 10702 10702 10702 10702 10701 10700 10699 10700 10700 10700 10700 10699 10698 10699 10700 10701 10702 10702 10703 10704 10706 10707 10708 10709 10710 10710 10711 10712 10713
10734 10733 10732 10731 10731 10730 10730 10730 10729 10728 10727 10727 10726 10725 10724 10722 10721 10719 10717 10716 10715 10714 10713 10712 10711 10710 10709 10708 10707 10706 10705 10705 10704 10702 10701 10701 10700 10699 10698 10697 10696 10696 10696 10695 10695 10695 10695 10695 10695 10695 10696 10696 10695 10694 10694 10695 10696 10695 10694 10693 10693 10693 10693 10693 10693 10692 10692 10691 10691 10692 10693 10693 10694 10695 10696 10697 10698 10700 10701 10702 10703 10703 10704 10705 10705
10728 10727 10726 10725 10724 10724 10723 10722 10722 10721 10720 10720 10719 10718 10717 10716 10715 10713 10711 10710 10708 10706 10705 10704 10703 10703 10702 10701 10700 10698 10697 10696 10696 10695 10693 10693 10692 10691 10690 10689 10688 10688 10687 10687 10687 10686 10686 10686 10686 10686 10687 10688 10687 10686 10686 10687 10688 10687 10686 10686 10686 10686 10686 10685 10685 10684 10683 10683 10683 10684 10685 10686 10687 10688 10689 10690 10691 10693 10693 10694 10695 10696 10696 10697 10698
10721 10721 10719 10719 10718 10717 10716 10715 10715 10714 10713 10713 10712 10711 10710 10709 10707 10706 10705 10703 10701 10700 10698 10696 10695 10694 10693 10692 10692 10691 10689 10688 10687 10686 10685 10684 10683 10682 10682 10681 10680 10679 10679 10679 10678 10678 10678 10678 10677 10677 10678 10678 10678 10677 10678 10679 10680 10679 10678 10678 10679 10679 10678 10677 10677 10676 10675 10675 10676 10677 10678 10678 10679 10680 10681 10684 10685 10685 10686 10686 10687 10688 10688 10689 10690
10716 10715 10713 10712 10712 10711 10710 10709 10708 10706 10706 10705 10704 10703 10702 10701 10700 10699 10698 10696 10695 10693 10691 10689 10687 10685 10684 10683 10683 10682 10681 10679 10678 10676 10675 10675 10674 10672 10672 10671 10670 10670 10669 10669 10669 10668 10668 10668 10668 10668 10668 10668 10668 10668 10668 10669 10671 10671 10670 10670 10671 10671 10670 10669 10668 10668 10667 10668 10669 10669 10669 10669 10670 10671 10674 10677 10678 10678 10677 10678 10679 10680 10681 10681 10682
10711 10710 10709 10708 10707 10706 10704 10703 10702 10700 10699 10698 10697 10695 10694 10693 10692 10691 10690 10689 10687 10685 10684 10682 10680 10678 10676 10674 10673 10672 10671 10670 10668 10667 10666 10664 10663 10662 10661 10661 10660 10660 10659 10659 10659 10659 10658 10658 10658 10658 10658 10658 10658 10658 10658 10659 10661 10661 10662 10663 10663 10662 10662 10661 10660 10659 10659 10660 10661 10661 10661 10661 10662 10663 10666 10668 10668 10668 10669 10670 10672 10672 10673 10674 10675
10707 10706 10705 10703 10702 10701 10700 10699 10697 10696 10694 10692 10690 10688 10687 10686 10684 10683 10681 10680 10678 10677 10675 10674 10672 10670 10668 10666 10665 10663 10662 10660 10659 10657 10656 10654 10653 10651 10650 10649 10649 10648 10648 10648 10648 10648 10648 10647 10647 10648 10648 10647 10647 10647 10647 10649 10650 10651 10653 10654 10653 10652 10652 10652 10652 10651 10650 10651 10652 10653 10653 10653 10653 10654 10656 10659 10659 10659 10661 10662 10663 10664 10665 10666 10667
10701 10700 10699 10698 10697 10696 10695 10694 10692 10691 10689 10687 10685 10683 10680 10678 10676 10674 10673 10671 10669 10668 10666 10664 10663 10661 10659 10658 10656 10654 10652 10650 10649 10647 10646 10644 10642 10641 10640 10638 10637 10636 10636 10636 10636 10636 10635 10635 10636 10636 10636 10636 10636 10635 10636 10637 10639 10640 10642 10644 10643 10643 10643 10641 10643 10643 10642 10642 10643 10643 10644 10644 10644 10645 10647 10649 10650 10650 10651 10653 10654 10655 10656 10657 10658
10694 10693 10692 10691 10690 10689 10688 10687 10685 10684 10683 10681 10679 10676 10674 10671 10669 10666 10664 10662 10660 10658 10656 10654 10652 10651 10649 10647 10646 10644 10642 10640 10639 10637 10635 10633 10632 10630 10629 10628 10626 10625 10624 10623 10623 10623 10623 10623 10623 10623 10623 10624 10624 10623 10623 10624 10627 10628 10630 10632 10633 10634 10633 10631 10633 10634 10632 10633 10634 10633 10634 10635 10635 10635 10637 10639 10640 10641 10642 10643 10645 10645 10646 10648 10649
10687 10686 10685 10683 10682 10681 10680 10678 10677 10675 10673 10672 10670 10668 10666 10663 10661 10658 10655 10652 10650 10647 10645 10642 10641 10639 10638 10636 10634 10632 10630 10629 10627 10625 10624 10622 10621 10619 10618 10616 10615 10614 10613 10612 10611 10609 10609 10609 10609 10610 10611 10611 10611 10611 10610 10611 10613 10615 10617 10620 10622 10623 10624 10622 10623 10624 10622 10622 10625 10625 10624 10624 10625 10626 10627 10629 10630 10631 10632 10633 10635 10636 10637 10638 10639
10679 10678 10677 10675 10673 10672 10671 10669 10667 10665 10663 10662 10660 10658 10656 10653 10651 10648 10645 10642 10639 10636 10633 10631 10629 10627 10625 10624 10622 10620 10618 10616 10615 10613 10611 10610 10609 10607 10606 10605 10603 10602 10601 10600 10598 10597 10596 10596 10595 10596 10597 10598 10598 10598 10597 10598 10599 10601 10603 10606 10609 10611 10613 10612 10612 10614 10614 10611 10611 10614 10615 10614 10615 10617 10618 10618 10619 10620 10621 10624 10626 10627 10627 10629 10629
10670 10669 10668 10666 10663 10661 10659 10658 10656 10655 10652 10651 10649 10646 10644 10642 10639 10637 10634 10631 10628 10625 10622 10619 10616 10614 10613 10611 10609 10607 10605 10603 10601 10600 10598 10597 10595 10594 10593 10591 10590 10589 10588 10587 10586 10585 10584 10583 10582 10582 10583 10584 10585 10585 10584 10584 10585 10586 10588 10591 10594 10596 10599 10601 10601 10603 10606 10605 10600 10598 10601 10604 10605 10607 10607 10607 10608 10609 10611 10613 10615 10617 10618 10619 10619
10659 10658 10657 10655 10653 10651 10648 10646 10644 10642 10639 10637 10635 10633 10631 10629 10626 10624 10621 10618 10615 10612 10610 10607 10604 10601 10598 10597 10595 10593 10591 10589 10587 10585 10584 10582 10581 10579 10578 10576 10575 10574 10573 10573 10572 10572 10571 10570 10570 10569 10569 10569 10570 10570 10570 10570 10571 10572 10573 10575 10577 10580 10583 10586 10588 10589 10593 10597 10595 10587 10585 10589 10594 10596 10596 10596 10597 10598 10600 10602 10604 10606 10607 10608 10608
10649 10647 10645 10643 10641 10639 10637 10634 10631 10628 10625 10623 10621 10619 10617 10614 10612 10609 10606 10604 10601 10598 10595 10593 10590 10587 10584 10581 10579 10578 10576 10573 10571 10570 10568 10567 10566 10564 10562 10561 10559 10558 10558 10557 10557 10557 10556 10556 10556 10556 10555 10555 10555 10555 10556 10556 10556 10557 10558 10559 10561 10563 10566 10568 10572 10575 10578 10583 10587 10582 10574 10574 10580 10583 10583 10585 10586 10586 10588 10590 10592 10593 10595 10596 10597
10639 10636 10634 10631 10629 10626 10624 10622 10619 10616 10613 10610 10608 10604 10602 10599 10596 10594 10591 10588 10585 10582 10579 10577 10575 10572 10569 10566 10563 10561 10559 10557 10555 10554 10552 10550 10549 10548 10546 10545 10543 10542 10541 10540 10540 10540 10540 10540 10540 10540 10540 10540 10540 10540 10540 10541 10541 10541 10543 10544 10545 10546 10548 10551 10554 10557 10561 10566 10572 10574 10568 10563 10566 10569 10569 10571 10575 10576 10576 10577 10579 10581 10582 10583 10584